Weather History for KLHW - July, 2012

Change the Weather History Date:

Sunday, July 1, 2012

  Actual Average Record
Temperature  
Mean Temperature 86 °F -  
Max Temperature 99 °F 92 °F 101 °F (1977)
Min Temperature 73 °F 70 °F 66 °F (1973)
Cooling Degree Days 21    
Growing Degree Days 36 (Base 50)    
Moisture  
Dew Point 76 °F    
Average Humidity 60    
Maximum Humidity 88    
Minimum Humidity 47    
Precipitation  
Precipitation 0.00 in - - ()
Sea Level Pressure  
Sea Level Pressure 29.94 in    
Wind  
Wind Speed 9 mph (SSW)    
Max Wind Speed 38 mph    
Max Gust Speed 56 mph    
Visibility 4 miles    
Events Rain , Thunderstorm    
Averages and records for this station are not official NWS values.
T = Trace of Precipitation, MM = Missing Value Source: NWS Daily Summary

Daily Weather History Graph

Daily Weather History Graph

Search for Another Location

Airport or City:

Trip Planner

Search our weather history database for the weather conditions in past years. The results will help you decide how hot, cold, wet, or windy it might be!

Date:

Astronomy

Jul. 01, 2012 Rise Set
Actual Time 6:24 AM EDT 8:36 PM EDT
Civil Twilight 5:56 AM EDT 9:04 PM EDT
Nautical Twilight 5:21 AM EDT 9:38 PM EDT
Astronomical Twilight 4:44 AM EDT 10:15 PM EDT
Moon 6:38 PM EDT (7/1) 4:08 AM EDT (7/1)
Length of Visible Light 15h 07m
Length of Day
14h 11m
Waxing Gibbous, 94% of the Moon is Illuminated
Jul 1
Waxing Gibbous
Jul 3
Full
Jul 10
Last Quarter
Jul 19
New
Jul 26
First Quarter

Hourly Weather History & Observations

Time (EDT) Temp. Heat Index Dew Point Humidity Pressure Visibility Wind Dir Wind Speed Gust Speed Precip Events Conditions
12:55 AM 84.4 °F 95.4 °F 77.9 °F 81% 29.92 in 10.0 mi SSW 8.1 mph - N/A   Mostly Cloudy
1:55 AM 82.4 °F 90.3 °F 76.5 °F 82% 29.92 in 10.0 mi SW 8.1 mph - N/A   Clear
2:55 AM 81.3 °F 87.0 °F 74.3 °F 79% 29.92 in 10.0 mi SW 8.1 mph - N/A   Clear
3:55 AM 80.1 °F 84.4 °F 73.2 °F 80% 29.91 in 10.0 mi SW 5.8 mph - N/A   Clear
4:55 AM 79.0 °F - 72.3 °F 80% 29.91 in 10.0 mi Variable 4.6 mph - N/A   Clear
5:55 AM 77.5 °F - 72.1 °F 83% 29.93 in 10.0 mi SSW 4.6 mph - N/A   Clear
6:55 AM 76.8 °F - 72.1 °F 85% 29.94 in 10.0 mi SW 4.6 mph - N/A   Clear
7:55 AM 78.8 °F - 73.0 °F 82% 29.95 in 10.0 mi SSW 5.8 mph - N/A   Clear
8:55 AM 81.7 °F 87.6 °F 74.1 °F 78% 29.96 in 10.0 mi SW 6.9 mph - N/A   Clear
9:55 AM 84.2 °F 92.3 °F 75.2 °F 74% 29.97 in 10.0 mi SW 5.8 mph - N/A   Clear
10:55 AM 87.6 °F 98.7 °F 76.3 °F 69% 29.98 in 10.0 mi Variable 4.6 mph - N/A   Clear
11:55 AM 90.9 °F 104.3 °F 77.2 °F 64% 29.99 in 10.0 mi SSW 5.8 mph - N/A   Partly Cloudy
12:55 PM 93.7 °F 108.6 °F 77.5 °F 59% 29.99 in 10.0 mi SW 4.6 mph - N/A   Scattered Clouds
1:55 PM 95.7 °F 110.9 °F 77.4 °F 55% 29.97 in 10.0 mi South 8.1 mph - N/A   Mostly Cloudy
2:55 PM 97.2 °F 115.0 °F 78.6 °F 55% 29.96 in 10.0 mi SSE 10.4 mph - N/A   Clear
3:03 PM 96.8 °F 114.8 °F 78.8 °F 56% 29.96 in 2.5 mi Variable 5.8 mph - N/A   Haze
3:12 PM 98.6 °F 117.2 °F 78.8 °F 53% 29.95 in 3.0 mi SSE 8.1 mph - N/A   Haze
3:23 PM 96.8 °F 114.8 °F 78.8 °F 56% 29.95 in 2.5 mi South 5.8 mph - N/A   Haze
3:25 PM 96.8 °F 114.8 °F 78.8 °F 56% 29.95 in 1.8 mi South 4.6 mph - N/A   Haze
3:27 PM 96.8 °F 114.8 °F 78.8 °F 56% 29.95 in 1.5 mi SSE 8.1 mph - N/A   Haze
3:32 PM 98.6 °F 117.2 °F 78.8 °F 53% 29.95 in 1.8 mi South 11.5 mph 17.3 mph N/A   Haze
3:33 PM 98.6 °F 117.2 °F 78.8 °F 53% 29.95 in 2.0 mi South 9.2 mph 17.3 mph N/A   Haze
3:36 PM 98.6 °F 117.2 °F 78.8 °F 53% 29.94 in 3.0 mi SSE 6.9 mph 17.3 mph N/A   Haze
3:40 PM 98.6 °F 117.2 °F 78.8 °F 53% 29.94 in 2.5 mi South 8.1 mph 17.3 mph N/A   Haze
3:50 PM 98.6 °F 117.2 °F 78.8 °F 53% 29.94 in 4.0 mi Variable 6.9 mph - N/A   Haze
3:55 PM 98.8 °F 116.8 °F 78.3 °F 52% 29.94 in 3.0 mi Variable 5.8 mph - N/A   Haze
4:19 PM 98.6 °F 117.2 °F 78.8 °F 53% 29.92 in 2.5 mi South 8.1 mph - N/A   Haze
4:22 PM 98.6 °F 114.4 °F 77.0 °F 50% 29.92 in 1.8 mi South 8.1 mph - N/A   Haze
4:23 PM 98.6 °F 114.4 °F 77.0 °F 50% 29.92 in 1.5 mi SSW 8.1 mph - N/A   Haze
4:24 PM 98.6 °F 117.2 °F 78.8 °F 53% 29.92 in 1.2 mi SSW 6.9 mph - N/A   Haze
4:25 PM 98.6 °F 117.2 °F 78.8 °F 53% 29.92 in 1.0 mi Variable 5.8 mph - N/A   Haze
4:33 PM 98.6 °F 117.2 °F 78.8 °F 53% 29.91 in 1.2 mi Variable 5.8 mph - N/A   Haze
4:34 PM 98.6 °F 117.2 °F 78.8 °F 53% 29.91 in 1.5 mi Variable 6.9 mph - N/A   Haze
4:35 PM 98.6 °F 117.2 °F 78.8 °F 53% 29.91 in 2.0 mi South 8.1 mph - N/A   Haze
4:36 PM 98.6 °F 117.2 °F 78.8 °F 53% 29.91 in 3.0 mi South 10.4 mph - N/A   Haze
4:42 PM 98.6 °F 114.4 °F 77.0 °F 50% 29.91 in 2.5 mi SW 6.9 mph - N/A   Haze
4:44 PM 98.6 °F 114.4 °F 77.0 °F 50% 29.91 in 1.8 mi Variable 6.9 mph - N/A   Haze
4:45 PM 98.6 °F 114.4 °F 77.0 °F 50% 29.91 in 1.5 mi SSW 9.2 mph - N/A   Haze
4:47 PM 98.6 °F 114.4 °F 77.0 °F 50% 29.91 in 1.2 mi SSW 8.1 mph - N/A   Haze
4:51 PM 98.6 °F 114.4 °F 77.0 °F 50% 29.91 in 1.5 mi SW 8.1 mph - N/A   Haze
4:53 PM 98.6 °F 114.4 °F 77.0 °F 50% 29.91 in 1.8 mi SW 8.1 mph - N/A   Haze
4:54 PM 98.6 °F 114.4 °F 77.0 °F 50% 29.91 in 2.0 mi SW 8.1 mph - N/A   Haze
4:55 PM 99.1 °F 114.9 °F 76.8 °F 49% 29.91 in 2.0 mi SSW 9.2 mph - N/A   Haze
4:57 PM 98.6 °F 114.4 °F 77.0 °F 50% 29.91 in 3.0 mi South 9.2 mph - N/A   Haze
5:17 PM 98.6 °F 111.7 °F 75.2 °F 47% 29.91 in 2.5 mi SSW 10.4 mph - N/A   Haze
5:23 PM 98.6 °F 111.7 °F 75.2 °F 47% 29.90 in 1.8 mi South 9.2 mph - N/A   Haze
5:24 PM 98.6 °F 111.7 °F 75.2 °F 47% 29.90 in 1.5 mi South 9.2 mph - N/A   Haze
5:28 PM 98.6 °F 111.7 °F 75.2 °F 47% 29.90 in 1.2 mi South 11.5 mph - N/A   Haze
5:30 PM 98.6 °F 114.4 °F 77.0 °F 50% 29.90 in 1.0 mi SSW 6.9 mph - N/A   Haze
5:36 PM 98.6 °F 114.4 °F 77.0 °F 50% 29.90 in 0.8 mi Variable 5.8 mph - N/A   Haze
5:39 PM 98.6 °F 114.4 °F 77.0 °F 50% 29.89 in 1.0 mi South 6.9 mph - N/A   Haze
5:49 PM 98.6 °F 111.7 °F 75.2 °F 47% 29.89 in 0.8 mi SSW 8.1 mph - N/A   Haze
5:55 PM 98.2 °F 110.8 °F 74.8 °F 47% 29.89 in 0.8 mi SSW 5.8 mph - N/A   Haze
6:01 PM 98.6 °F 111.7 °F 75.2 °F 47% 29.89 in 0.8 mi Variable 5.8 mph - N/A   Haze
6:02 PM 98.6 °F 114.4 °F 77.0 °F 50% 29.89 in 1.0 mi South 5.8 mph - N/A   Haze
6:34 PM 96.8 °F 114.8 °F 78.8 °F 56% 29.91 in 1.2 mi WSW 9.2 mph - N/A   Haze
6:39 PM 96.8 °F 114.8 °F 78.8 °F 56% 29.91 in 1.5 mi Variable 4.6 mph - N/A   Haze
6:41 PM 96.8 °F 114.8 °F 78.8 °F 56% 29.91 in 1.2 mi Variable 4.6 mph - N/A   Haze
6:44 PM 96.8 °F 114.8 °F 78.8 °F 56% 29.91 in 1.0 mi SSW 5.8 mph - N/A   Haze
6:49 PM 96.8 °F 114.8 °F 78.8 °F 56% 29.91 in 0.8 mi SW 8.1 mph - N/A   Haze
6:51 PM 95.0 °F 112.2 °F 78.8 °F 59% 29.91 in 1.0 mi SW 6.9 mph - N/A   Haze
6:55 PM 95.5 °F 112.9 °F 78.4 °F 58% 29.91 in 1.0 mi South 6.9 mph - N/A   Haze
7:01 PM 95.0 °F 112.2 °F 78.8 °F 59% 29.91 in 1.0 mi SW 3.5 mph - N/A   Haze
7:07 PM 95.0 °F 112.2 °F 78.8 °F 59% 29.91 in 1.2 mi SSW 4.6 mph - N/A   Haze
7:16 PM 95.0 °F 112.2 °F 78.8 °F 59% 29.91 in 1.5 mi South 4.6 mph - N/A   Haze
7:19 PM 95.0 °F 112.2 °F 78.8 °F 59% 29.91 in 1.8 mi South 3.5 mph - N/A   Haze
7:20 PM 95.0 °F 112.2 °F 78.8 °F 59% 29.91 in 2.0 mi South 3.5 mph - N/A   Haze
7:22 PM 95.0 °F 112.2 °F 78.8 °F 59% 29.91 in 3.0 mi Calm Calm - N/A   Haze
7:55 PM 90.7 °F 110.2 °F 81.0 °F 73% 29.91 in 10.0 mi SSE 3.5 mph - N/A   Clear
8:55 PM 87.6 °F 105.6 °F 81.0 °F 81% 29.96 in 10.0 mi ESE 6.9 mph - N/A   Clear
9:25 PM 87.8 °F 102.5 °F 78.8 °F 75% 30.04 in 10.0 mi NNE 25.3 mph - N/A   Squalls
9:26 PM 87.8 °F 102.5 °F 78.8 °F 75% 30.04 in 10.0 mi NNE 33.4 mph 51.8 mph N/A   Squalls
9:27 PM 86.0 °F 95.1 °F 75.2 °F 70% 30.05 in 10.0 mi NNE 38.0 mph 51.8 mph N/A   Squalls
9:38 PM 80.6 °F 82.3 °F 64.4 °F 58% 30.06 in 10.0 mi NNE 28.8 mph 56.4 mph N/A   Light Drizzle
9:42 PM 78.8 °F - 66.2 °F 65% 30.07 in 8.0 mi North 29.9 mph 56.4 mph N/A Rain , Thunderstorm Light Thunderstorms and Rain
9:44 PM 78.8 °F - 68.0 °F 69% 30.08 in 5.0 mi NNE 31.1 mph 42.6 mph N/A Rain , Thunderstorm Light Thunderstorms and Rain
9:47 PM 75.2 °F - 69.8 °F 83% 30.08 in 2.5 mi NNE 26.5 mph 41.4 mph N/A Rain , Thunderstorm Heavy Thunderstorms and Rain
9:48 PM 75.2 °F - 69.8 °F 83% 30.08 in 2.0 mi NNE 26.5 mph 39.1 mph N/A Rain , Thunderstorm Heavy Thunderstorms and Rain
9:49 PM 75.2 °F - 69.8 °F 83% 30.09 in 1.8 mi NNE 28.8 mph 39.1 mph N/A Rain , Thunderstorm Heavy Thunderstorms and Rain
9:50 PM 73.4 °F - 69.8 °F 88% 30.09 in 1.5 mi NNE 26.5 mph 39.1 mph N/A Rain , Thunderstorm Heavy Thunderstorms and Rain
9:51 PM 73.4 °F - 69.8 °F 88% 30.09 in 1.5 mi North 23.0 mph 39.1 mph N/A Rain , Thunderstorm Heavy Thunderstorms and Rain